This demonstration page uses our WeatherBlox Daily Observations layout. Learn more.

Left ArrowRight Arrow

39.29038, -76.61219

Hourly Observations for March 26, 2015

Temp ( °F °C ) Dew Point ( °F °C ) Humidity (%) Winds ( mph kmh ) Pressure ( in mb ) Visibility ( mi km ) Precip ( " mm )
12:54 am 00:54 undefined 43 6.1 35 1.7 74 74 undefined N/A 30.11 1020 N/A 0.00 0.00
1:54 am 01:54 undefined 44 6.7 36 2.2 73 73 undefined N/A 30.10 1019 N/A 0.00 0.00
2:54 am 02:54 undefined 45 7.2 37 2.8 74 74 undefined N/A 30.08 1019 N/A 0.00 0.00
3:54 am 03:54 undefined 44 6.7 36 2.2 73 73 undefined N/A 30.04 1017 N/A 0.00 0.00
4:54 am 04:54 undefined 45 7.2 37 2.8 74 74 undefined N/A 30.04 1017 N/A 0.00 0.00
5:54 am 05:54 undefined 44 6.7 38 3.3 79 79 undefined N/A 30.00 1016 N/A 0.00 0.00
6:54 am 06:54 undefined 45 7.2 39 3.9 80 80 undefined N/A 29.98 1015 N/A 0.00 0.00
7:54 am 07:54 undefined 46 7.8 40 4.4 79 79 undefined N/A 29.98 1015 N/A 0.00 0.00
8:54 am 08:54 undefined 51 10.6 40 4.4 66 66 undefined N/A 29.96 1015 N/A 0.00 0.00
9:54 am 09:54 undefined 50 10 41 5 71 71 undefined N/A 29.93 1014 N/A 0.00 0.00
10:54 am 10:54 undefined 54 12.2 47 8.3 77 77 undefined N/A 29.91 1013 N/A 0.00 0.00
11:54 am 11:54 undefined 53 11.7 51 10.6 93 93 undefined N/A 29.86 1011 N/A 0.11 2.79
1:54 pm 13:54 undefined 55 12.8 52 11.1 90 90 undefined N/A 29.75 1008 N/A 0.00 0.00
2:54 pm 14:54 undefined 63 17.2 58 14.4 84 84 undefined N/A 29.68 1005 N/A 0.00 0.00
3:54 pm 15:54 undefined 69 20.6 59 15 70 70 undefined N/A 29.64 1004 N/A 0.00 0.00
4:54 pm 16:54 undefined 69 20.6 57 13.9 66 66 undefined N/A 29.61 1003 N/A 0.00 0.00
5:54 pm 17:54 undefined 66 18.9 57 13.9 73 73 undefined N/A 29.60 1002 N/A 0.00 0.00
6:54 pm 18:54 undefined 65 18.3 57 13.9 76 76 undefined N/A 29.58 1002 N/A 0.00 0.00
7:54 pm 19:54 undefined 65 18.3 57 13.9 76 76 undefined N/A 29.64 1004 N/A 0.00 0.00
8:54 pm 20:54 undefined 61 16.1 55 12.8 81 81 undefined N/A 29.66 1004 N/A 0.13 3.30
9:54 pm 21:54 undefined 59 15 53 11.7 81 81 undefined N/A 29.68 1005 N/A 0.00 0.00
10:54 pm 22:54 undefined 53 11.7 48 8.9 83 83 undefined N/A 29.72 1006 N/A 0.13 3.30

Powered by AerisWeather